NOAA 16 DEB, 41207

Orbit data source: Space-Track

NOAA 16 DEB, 41207 is space debris in SSO originally from a launch on Thu, 21 Sep 2000 UTC launched from the Air Force Western Test Range (AFWTR). Debris objects in space refer to the collection of defunct objects orbiting the Earth. Examples of debris include non-operational satellites, rocket bodies, and fragments generated from explosions, collisions, or faulty payload assembly.

Loading next visibility...
NOAA 16 DEB details
Identifier
41207, 2000-055DL
Orbit
SSO
Last TLE update2 days ago
Origin
Flag of USNOAA (US)
ManufacturerUnknown
MissionSpacecraft
Bus & MotorUnknown
MassUnknown
Launch date (UTC)
2000-09-21 (24 years ago)
Launch vehicleUnknown
Launch site
Air Force Western Test Range (AFWTR)
Object type
Payload
Rocket body
Debris
Shape & HBRUnknown
Radar Cross SectionSmall (<0.1 m²)

Expand to show TLE details & history

TLE from 2 days ago
0 NOAA 16 DEB
1 41207U 00055DL  24335.00119756  .00036562  00000-0  80751-2 0  9995
2 41207  98.9350 178.1971 0048373 208.5358 151.3188 14.56418696469646
Epoch: 2024-11-30T00:01Z
Definitive object data (Epoch: 2024-11-30T00:01:43.469Z)
Latitude-0.00006°
Longitude108.40596°
Altitude737.82 km
Speed7.47 km/s
True Right ascension11h 52m 47s
True Declination0° 00' 00"
Sunlit
Object was in daylight at TLE epoch
Visualization TLE readout
Latitude-59.68752°
Longitude126.409°
Altitude731.702 km
Speed7.486 km/s
Apparent Right ascension15h 43m 00s
Apparent Declination-55° 06' 26"
Sunlit
Object is in daylight
Visualization observer readout
Local Sidereal Time05:34:29
Azimuth138.72° SSE
Elevation-66.087°
Doppler factor1
Orbital elements
Apogee altitude736.131 km
Perigee altitude667.634 km
Semi-major axis7,080.019 km
Eccentricity0.0048373
Inclination98.935°
RAAN178.1971°
Arg. of periapsis208.5358°
True anomaly151.58343°
Mean anomaly151.3188°
Eccentric anomaly151.45126°
Mean motion3.64327 °/min
BSTAR0.0080751
Orbital period98.81 mins
Loading maneuver chart data...
Loading historical data...
Loading historical data...
Loading historical data...
Loading historical data...
Loading historical data...
Loading historical data...
Loading historical data...

NOAA 16 DEB Visibility forecast

Observer location: undefined°, undefined

Span
Click to sort rows by Start time (UTC) header in descending order
Start Az.
Max El. time (UTC)
Max El. Az.
Max El.
End time (UTC)
End Az.
8 mins2024-12-02 13:09:21.476Z138.677° SSE2024-12-02 13:13:21.476Z79.635° E33.857°2024-12-02 13:17:21.476Z4.439° NNE
5 mins2024-12-02 14:49:21.476Z233.248° WSW2024-12-02 14:51:21.476Z263.767° W19.361°2024-12-02 14:54:21.476Z306.804° NW
7 mins2024-12-03 02:48:21.476Z10.75° NNE2024-12-03 02:51:21.476Z337.776° N44.09°2024-12-03 02:55:21.476Z199.405° SSW
|